RH
64 76 91 90 89 88 87 86 87 86 85 84 83 81 79 76 79 78 76 74 70 62 57 56 55 57 58 62 64 65 65 66 68 68 71 67 68 68 71 80 74 57 77
66 69 91 90 88 86 86 87 87 86 85 83 82 80 78 78 79 78 76 72 67 58 55 54 59 60 62 65 67 68 68 73 77 76 70 68 73 69 69 78 79 66 76
63 68 71 89 87 86 86 87 87 85 83 81 79 77 76 74 73 77 75 70 66 57 54 57 58 59 61 64 67 67 70 75 78 79 76 72 62 68 66 76 76 73 73
55 57 68 91 88 87 87 86 85 84 81 80 77 74 75 71 69 71 72 71 68 61 58 58 62 65 70 74 76 76 76 77 77 77 45 47 53 72 69 72 73 70 74
57 53 76 90 84 85 85 84 87 86 84 81 77 71 67 66 65 65 73 71 65 62 61 62 65 71 76 83 83 82 80 78 73 57 46 56 60 67 69 71 71 72 78
69 70 90 86 84 82 82 88 90 88 86 83 80 74 64 62 62 68 75 71 65 64 64 66 69 74 82 83 83 82 82 80 73 33 43 58 64 69 70 69 76 76 78
92 91 88 92 87 85 83 90 90 90 88 85 82 75 70 63 65 71 76 74 69 68 68 69 73 79 82 83 82 80 80 80 55 38 47 61 73 67 66 71 75 77 74
92 94 89 90 90 92 90 93 92 90 88 85 82 75 72 75 76 76 77 77 77 77 78 78 80 81 81 81 79 78 77 78 49 49 46 66 74 62 57 65 76 77 74
96 93 94 91 87 93 93 93 92 90 89 87 84 80 80 80 79 78 79 78 79 81 82 83 83 82 81 80 79 78 80 75 66 46 42 64 74 63 58 61 69 72 73
96 98 91 95 92 89 84 91 90 89 87 85 81 79 79 79 77 77 79 80 80 81 80 80 77 74 77 78 76 80 78 67 37 41 56 78 71 62 64 62 66 72 72
94 93 89 91 86 90 89 84 87 86 84 82 78 78 79 66 69 70 78 77 77 78 78 76 70 71 76 76 76 78 82 41 39 40 56 75 65 56 60 67 71 75 76
96 85 77 81 79 78 56 77 76 65 65 67 62 71 68 65 56 48 70 74 75 73 72 72 71 77 74 48 52 68 47 46 41 40 73 73 62 53 58 65 69 72 76
69 69 69 78 77 64 58 60 54 56 65 67 63 63 66 66 72 69 74 68 77 74 58 64 56 53 48 52 50 52 49 43 46 40 73 73 62 50 51 58 61 65 69
58 61 62 59 64 62 50 50 56 57 63 68 66 61 73 76 77 78 76 76 73 64 58 59 57 52 52 45 45 47 47 47 46 44 80 73 68 50 47 50 54 58 62
52 51 52 58 61 60 61 65 67 68 68 68 74 72 73 75 77 76 76 71 71 63 57 49 51 48 48 43 45 45 43 43 44 46 55 70 70 57 49 52 56 59 60
45 50 55 54 61 59 68 67 68 69 69 68 71 75 69 72 77 77 68 65 62 54 50 50 56 54 50 48 43 46 45 42 42 44 41 64 72 69 59 59 58 56 56
45 47 54 62 66 67 66 63 67 62 62 68 75 81 80 86 85 74 72 75 66 56 52 57 54 54 55 45 47 47 45 42 41 44 46 41 71 74 69 58 52 50 50
42 48 52 50 62 73 76 76 82 72 69 66 69 70 62 56 60 64 62 64 63 60 56 56 59 57 56 56 56 51 51 44 38 35 44 43 45 46 68 62 52 50 46
42 49 55 63 69 70 79 71 67 69 58 57 61 58 54 51 52 60 62 67 61 60 60 58 65 66 63 58 48 43 54 47 44 30 34 38 44 49 44 65 64 60 49
45 49 57 60 70 74 64 62 60 58 56 54 53 52 52 48 53 60 62 58 57 58 60 65 66 65 66 64 35 33 52 52 43 46 45 34 39 44 47 43 51 47 55
50 50 55 61 66 63 54 53 55 58 55 52 50 51 54 51 47 53 58 59 60 60 66 62 64 64 64 60 54 49 49 46 44 47 42 42 40 34 43 50 46 45 40
50 52 54 53 55 53 48 54 57 51 52 50 54 53 53 55 50 46 60 58 60 61 64 66 64 66 62 61 61 57 57 48 46 39 46 41 44 44 42 34 42 41 48
58 59 52 60 51 49 52 47 51 52 57 53 52 54 52 50 44 44 51 56 60 60 64 66 62 65 68 63 60 62 62 64 55 51 43 46 49 51 51 46 37 37 39
71 61 51 48 46 44 44 51 56 50 50 55 54 50 43 45 40 31 38 51 56 62 64 66 50 68 68 67 62 48 61 62 58 54 45 44 44 37 47 53 46 42 40
67 58 54 47 41 43 48 52 54 55 54 49 48 43 42 41 40 37 42 56 58 60 61 67 71 71 70 75 71 66 59 59 54 54 53 51 44 43 40 49 52 50 42
56 56 54 43 40 47 52 56 59 53 47 46 40 42 45 44 43 46 46 56 61 62 64 71 76 76 79 75 68 61 59 56 56 60 59 56 52 46 44 46 51 53 53
Wind_Speed
16 18 17 17 16 15 15 15 16 16 15 15 16 16 16 16 16 15 15 16 16 17 17 17 16 16 15 14 13 12 11 10 10 8 5 3 5 9 10 11 14 11 11
19 18 17 17 17 16 16 16 16 16 15 16 16 15 15 16 15 15 15 15 15 17 16 15 15 15 14 12 12 12 12 11 11 9 6 2 10 11 11 9 10 8 9
17 17 18 16 16 16 16 16 16 16 16 16 16 15 15 16 16 15 15 14 14 15 15 15 15 16 15 14 14 14 14 14 13 14 10 4 8 11 13 10 9 9 8
19 16 17 15 15 16 16 16 16 17 17 16 16 16 16 16 15 15 14 13 13 14 15 15 15 14 14 14 14 14 15 15 16 14 4 5 11 16 15 14 12 13 10
17 15 15 15 15 15 16 15 17 17 17 16 16 16 16 16 15 15 12 13 14 15 15 15 14 14 14 13 13 16 17 18 20 7 13 11 9 12 14 14 13 13 12
12 16 13 13 14 15 17 18 19 17 16 17 16 14 15 14 13 13 11 13 15 15 14 14 14 14 12 11 11 12 14 17 18 10 11 12 7 11 11 11 11 11 11
13 12 12 10 11 13 16 20 18 16 16 16 14 13 13 13 11 11 11 12 14 13 13 11 12 9 8 9 10 12 14 15 12 5 9 8 6 11 11 10 9 9 10
14 13 13 8 8 16 17 20 16 15 15 14 13 12 12 11 9 10 10 10 10 10 8 8 7 6 6 7 9 10 10 12 12 11 10 7 9 11 11 10 8 8 8
8 10 13 11 8 14 17 18 15 13 13 12 11 11 10 9 8 8 9 9 9 8 6 7 6 6 7 7 10 13 7 10 7 4 11 5 10 11 10 9 9 8 8
6 8 13 11 4 10 10 16 14 13 12 11 10 9 9 9 10 10 10 8 6 5 4 5 6 7 9 7 8 11 12 10 8 7 8 4 11 13 11 10 10 8 8
4 6 12 13 11 9 8 11 12 13 12 10 8 9 7 5 6 8 7 8 6 3 2 4 6 7 9 11 9 9 11 5 8 5 4 7 13 14 13 12 11 10 11
13 14 12 11 11 9 9 8 8 8 6 6 6 6 6 2 3 2 5 8 7 6 7 6 8 7 4 4 3 4 4 6 5 4 4 8 11 12 12 13 13 13 14
14 10 10 6 7 8 8 6 4 4 3 3 3 2 3 4 2 1 1 1 3 6 1 4 2 2 3 2 2 3 5 5 4 4 5 8 10 10 10 11 13 14 15
13 14 11 9 6 7 4 4 5 4 3 3 4 1 4 3 5 5 4 5 4 4 5 3 3 6 7 7 7 6 5 5 4 3 4 6 7 7 7 8 9 11 14
12 9 12 9 5 5 6 6 6 4 4 4 5 5 5 5 3 2 2 2 3 4 5 6 5 6 6 7 6 5 5 5 5 2 1 5 4 3 5 9 11 13 14
14 12 11 10 5 6 7 8 4 5 5 3 3 5 2 2 4 2 3 4 4 5 5 5 6 5 5 5 5 5 5 6 6 5 2 2 6 5 7 10 11 11 12
13 13 11 9 8 10 7 5 6 5 1 5 5 7 8 8 5 5 3 3 4 5 6 5 5 4 3 5 6 6 5 5 6 7 5 4 5 8 8 10 9 9 10
14 13 11 10 11 8 8 6 1 3 5 4 4 4 5 5 3 2 3 4 5 3 2 0 3 4 5 5 4 5 4 6 9 12 5 4 4 0 6 9 6 7 5
15 13 11 11 11 7 5 5 5 6 5 4 5 4 5 5 5 4 4 5 5 5 4 4 4 4 4 5 7 6 4 5 7 9 8 7 6 4 3 8 3 9 7
15 12 11 8 9 7 5 5 5 4 4 4 5 5 6 5 7 6 3 3 2 3 4 4 4 3 3 3 7 9 3 3 6 7 6 10 7 7 5 5 5 5 13
15 13 12 11 9 8 7 7 5 5 5 6 5 6 7 5 5 3 5 5 5 5 4 5 4 4 4 4 4 5 4 4 6 4 5 5 6 8 7 5 4 3 4
15 13 12 12 10 7 5 4 3 6 5 6 5 5 6 6 6 5 4 4 5 4 5 4 5 4 2 4 3 5 5 4 3 7 5 5 6 5 6 7 5 4 4
11 12 11 7 10 5 9 6 4 6 4 4 4 4 4 5 5 5 5 4 4 3 3 4 4 5 3 4 4 2 5 4 5 4 6 5 7 5 5 5 6 4 3
7 8 10 11 11 6 4 6 7 4 6 4 5 5 5 7 7 7 6 6 6 5 5 4 4 2 3 3 4 5 4 4 6 8 2 4 6 7 6 4 5 5 4
8 8 7 11 9 6 6 7 6 7 5 5 5 5 5 5 5 5 6 7 6 4 5 5 5 6 5 5 4 4 4 3 4 4 8 4 5 5 6 3 4 4 5
11 9 9 11 8 7 8 9 9 8 7 6 3 3 4 3 3 5 6 5 5 5 5 4 7 7 5 4 3 3 4 3 3 3 5 5 7 5 4 4 4 4 4
Wind_Direction
124 128 126 120 118 116 113 108 102 98 94 91 85 84 81 80 78 76 75 73 71 68 63 60 57 54 49 43 33 24 12 359 339 339 9 36 71 79 60 29 15 43 40
125 133 124 121 121 120 113 106 103 99 93 90 89 86 85 85 80 76 73 69 69 68 66 62 59 54 47 38 26 12 357 344 331 325 353 65 63 66 60 37 26 36 48
131 130 127 124 123 120 113 110 106 101 97 93 89 86 83 82 78 70 68 66 66 69 69 66 60 53 48 36 20 6 353 342 331 328 325 150 80 50 44 23 34 37 45
127 141 133 124 127 122 122 116 114 104 100 94 89 85 83 80 76 69 66 68 69 73 74 69 60 51 44 32 16 7 348 340 328 325 20 65 64 38 32 18 48 40 25
128 122 121 125 130 128 114 114 100 97 96 94 90 88 85 82 75 70 67 74 77 76 73 65 54 43 33 23 12 358 348 342 338 315 69 52 31 41 33 34 31 38 38
102 113 127 131 135 122 113 105 96 95 95 89 86 87 86 82 80 79 71 72 72 70 65 59 50 35 24 18 8 353 340 342 341 43 75 67 49 32 42 42 39 36 35
95 90 76 83 102 89 114 99 94 95 92 91 91 90 88 87 86 84 75 70 66 62 58 52 48 34 16 4 355 342 342 343 342 53 82 85 53 37 32 30 32 33 36
112 109 108 114 140 133 113 94 97 97 93 94 99 97 95 94 95 93 85 75 67 57 44 41 33 11 353 343 339 330 342 341 335 324 93 70 52 47 29 24 25 21 20
79 114 113 183 142 101 93 100 103 103 102 98 96 101 113 116 115 107 98 85 69 54 36 20 7 338 313 332 328 314 328 323 314 7 67 54 42 37 22 18 12 8 5
90 121 172 102 141 115 119 118 118 110 105 117 123 136 150 155 155 147 131 104 91 63 26 353 334 309 300 308 292 296 318 328 354 66 69 49 49 36 5 356 359 353 343
106 185 146 155 141 127 123 122 120 130 136 133 152 168 164 202 177 158 137 137 144 154 230 270 282 295 313 290 244 283 309 2 342 58 80 54 54 37 16 3 359 354 0
176 169 128 136 152 150 126 153 147 144 159 181 186 178 201 92 92 105 154 170 174 200 221 236 269 290 288 4 15 288 10 354 331 14 57 53 60 51 31 17 17 17 19
126 124 126 133 155 157 145 160 149 132 113 101 112 29 83 80 50 132 111 217 215 209 336 215 278 216 6 13 6 24 2 354 348 358 59 48 53 53 47 35 26 29 26
129 136 147 144 97 107 136 125 135 111 135 147 138 160 123 85 41 25 19 17 4 337 20 351 340 21 16 357 23 12 29 10 332 339 99 71 61 60 59 54 40 33 27
127 137 116 101 115 130 97 81 76 90 56 65 60 39 43 73 91 37 23 306 293 343 20 19 24 22 16 1 0 353 358 324 312 310 63 123 104 83 62 54 44 35 29
139 119 119 124 152 108 86 94 94 55 66 51 109 91 117 125 95 37 30 23 13 42 18 18 17 12 351 344 327 349 343 327 326 334 348 107 164 119 98 87 68 42 24
122 130 129 155 126 105 112 107 89 112 34 47 54 45 40 52 38 50 41 14 25 21 27 21 359 337 336 333 340 346 330 338 344 331 328 301 152 151 125 95 76 52 31
132 135 155 120 118 80 74 66 73 153 82 92 66 79 80 97 116 140 58 45 19 337 311 4 289 6 347 340 320 309 333 4 339 312 314 347 334 142 138 133 113 77 55
141 146 140 139 112 120 138 140 103 115 123 139 135 104 126 67 68 26 81 53 14 322 357 9 19 359 338 328 315 326 21 347 339 332 327 313 307 39 56 156 16 32 60
139 151 142 139 125 172 171 115 141 138 138 103 77 74 32 77 52 27 61 88 229 321 9 6 342 305 284 339 331 318 339 6 321 318 353 14 360 358 17 20 30 22 8
143 154 157 149 163 202 152 147 156 146 108 97 84 71 63 26 66 48 34 8 355 11 1 339 306 333 335 332 332 328 329 328 337 339 360 349 338 337 346 31 43 32 11
153 157 163 161 184 210 132 95 78 102 82 104 117 115 89 60 33 25 21 353 5 349 329 330 351 319 323 5 339 325 321 325 302 346 335 341 344 340 359 345 360 30 45
152 147 166 165 185 97 107 101 90 100 132 149 126 105 63 65 27 9 7 0 341 316 328 329 322 309 10 353 327 319 334 326 332 339 336 319 334 336 326 338 334 17 19
144 154 165 169 104 104 125 87 85 79 90 80 65 61 28 44 25 8 10 21 3 344 333 313 332 359 357 339 346 5 357 351 333 321 305 345 331 337 326 339 349 2 344
151 166 139 110 112 123 94 112 97 100 104 83 61 43 43 22 29 18 20 14 343 328 310 312 311 30 39 30 10 349 342 310 313 323 322 334 335 321 319 325 348 334 324
170 126 118 122 129 110 90 79 84 84 84 76 69 48 41 356 6 19 23 334 326 312 315 21 55 54 38 21 341 325 296 326 319 321 313 316 304 299 305 329 333 321 340